Volver al catálogo

CONNECTA IOT-8

ActivoComunicacionesSSO
NORAD 62695·PAYLOAD·🇹🇷 Turkey

Lanzado Jan 14, 2025 desde Vandenberg Space Force Base

Loading…

Próximos Pases (próximas 24 horas)

TLE

ActualizadoSource: Space-Track

Época: Sep 13, 2026, 22:59 UTC

1 62695U 25009CQ  26256.95779127  .00001777  00000-0  17468-3 0  9993
2 62695  97.7017 333.0210 0004084  75.5996 284.5677 14.93380059 90549

Sigue CONNECTA IOT-8 en tiempo real con AllMySat

Download on the App Store